• In India
  • List of Countries
  • For 7 days
  • Water Temperature
  • Satellite Maps
  • Weather Map
  • Weather Widgets
  • user-avatar
    Login

    Hourly Weather Popivtsi

    Today, 24 June, Sunday

    Time Temperature Precipitation Wind Pressure Humidity
    00:00 +7°C° 0 mm 3 mps 731 mmHg 95%
    01:00 +7°C° 0 mm 3 mps 731 mmHg 95%
    02:00 +6°C° 0 mm 2 mps 731 mmHg 95%
    03:00 +6°C° 0 mm 2 mps 731 mmHg 95%
    04:00 +5°C° 0 mm 3 mps 731 mmHg 95%
    05:00 +5°C° 0 mm 3 mps 731 mmHg 95%
    06:00 +8°C° 0 mm 3 mps 732 mmHg 89%
    07:00 +10°C° 0 mm 4 mps 732 mmHg 83%
    08:00 +12°C° 0 mm 4 mps 732 mmHg 76%
    09:00 +13°C° 0 mm 4 mps 732 mmHg 72%
    10:00 +15°C° 0 mm 4 mps 732 mmHg 67%
    11:00 +17°C° 0 mm 4 mps 733 mmHg 62%
    12:00 +17°C° 0.1 mm 4 mps 733 mmHg 62%
    13:00 +18°C° 0.1 mm 4 mps 733 mmHg 61%
    14:00 +18°C° 0.1 mm 4 mps 733 mmHg 60%
    15:00 +18°C° 0.2 mm 4 mps 733 mmHg 61%
    16:00 +18°C° 0.2 mm 4 mps 732 mmHg 62%
    17:00 +18°C° 0.2 mm 4 mps 732 mmHg 63%
    18:00 +17°C° 0 mm 3 mps 732 mmHg 68%
    19:00 +15°C° 0 mm 2 mps 732 mmHg 73%
    20:00 +14°C° 0 mm 2 mps 732 mmHg 79%
    21:00 +13°C° 0 mm 1 mps 732 mmHg 80%
    22:00 +13°C° 0 mm 1 mps 733 mmHg 82%
    23:00 +12°C° 0 mm 1 mps 733 mmHg 84%

    Tomorrow, 25 June, Monday

    Time Temperature Precipitation Wind Pressure Humidity
    00:00 +12°C° 0.1 mm 1 mps 733 mmHg 84%
    01:00 +11°C° 0.1 mm 1 mps 733 mmHg 84%
    02:00 +11°C° 0.1 mm 1 mps 733 mmHg 84%
    03:00 +11°C° 0.1 mm 1 mps 733 mmHg 84%
    04:00 +11°C° 0.1 mm 1 mps 733 mmHg 84%
    05:00 +11°C° 0.1 mm 1 mps 733 mmHg 85%
    06:00 +13°C° 0 mm 1 mps 734 mmHg 80%
    07:00 +15°C° 0 mm 1 mps 734 mmHg 74%
    08:00 +18°C° 0 mm 1 mps 734 mmHg 69%
    09:00 +19°C° 0.1 mm 1 mps 734 mmHg 66%
    10:00 +20°C° 0.1 mm 1 mps 735 mmHg 62%
    11:00 +21°C° 0.1 mm 1 mps 735 mmHg 58%
    12:00 +22°C° 0.1 mm 1 mps 735 mmHg 55%
    13:00 +21°C° 0.1 mm 2 mps 735 mmHg 52%
    14:00 +23°C° 0.1 mm 2 mps 735 mmHg 50%
    15:00 +23°C° 0 mm 2 mps 735 mmHg 51%
    16:00 +23°C° 0 mm 1 mps 735 mmHg 52%
    17:00 +23°C° 0 mm 1 mps 735 mmHg 53%
    18:00 +22°C° 0 mm 1 mps 735 mmHg 57%
    19:00 +20°C° 0 mm 1 mps 735 mmHg 62%
    20:00 +19°C° 0 mm 1 mps 735 mmHg 66%
    21:00 +18°C° 0 mm 1 mps 735 mmHg 69%
    22:00 +16°C° 0 mm 1 mps 735 mmHg 72%
    23:00 +15°C° 0 mm 1 mps 735 mmHg 75%

    Day after tomorrow, 26 June, Tuesday

    Time Temperature Precipitation Wind Pressure Humidity
    00:00 +14°C° 0 mm 1 mps 735 mmHg 77%
    01:00 +14°C° 0 mm 1 mps 735 mmHg 78%
    02:00 +13°C° 0 mm 1 mps 735 mmHg 80%
    03:00 +13°C° 0 mm 1 mps 735 mmHg 80%
    04:00 +13°C° 0 mm 1 mps 735 mmHg 80%
    05:00 +14°C° 0 mm 1 mps 735 mmHg 80%
    06:00 +15°C° 0 mm 1 mps 735 mmHg 76%
    07:00 +17°C° 0 mm 2 mps 735 mmHg 72%
    08:00 +19°C° 0 mm 2 mps 735 mmHg 68%
    09:00 +20°C° 0.3 mm 2 mps 735 mmHg 64%
    10:00 +21°C° 0.3 mm 2 mps 735 mmHg 60%
    11:00 +22°C° 0.3 mm 3 mps 735 mmHg 57%
    12:00 +22°C° 0.2 mm 3 mps 735 mmHg 56%
    13:00 +24°C° 0.2 mm 3 mps 735 mmHg 56%
    14:00 +24°C° 0.2 mm 3 mps 734 mmHg 55%
    15:00 +24°C° 0.1 mm 2 mps 734 mmHg 56%
    16:00 +24°C° 0.1 mm 2 mps 734 mmHg 57%
    17:00 +24°C° 0.1 mm 2 mps 734 mmHg 58%
    18:00 +21°C° 0.1 mm 2 mps 734 mmHg 63%
    19:00 +20°C° 0.1 mm 2 mps 734 mmHg 68%
    20:00 +18°C° 0.1 mm 2 mps 734 mmHg 73%
    21:00 +17°C° 0 mm 2 mps 734 mmHg 76%
    22:00 +17°C° 0 mm 2 mps 733 mmHg 79%
    23:00 +16°C° 0 mm 2 mps 733 mmHg 81%

    27 June, Wednesday

    Time Temperature Precipitation Wind Pressure Humidity
    00:00 +15°C° 0 mm 2 mps 733 mmHg 83%
    01:00 +15°C° 0 mm 2 mps 733 mmHg 85%
    02:00 +15°C° 0 mm 2 mps 733 mmHg 86%
    03:00 +14°C° 0 mm 2 mps 733 mmHg 87%
    04:00 +14°C° 0 mm 2 mps 733 mmHg 88%
    05:00 +14°C° 0 mm 2 mps 733 mmHg 89%
    06:00 +16°C° 0 mm 3 mps 733 mmHg 84%
    07:00 +18°C° 0 mm 3 mps 733 mmHg 80%
    08:00 +20°C° 0 mm 4 mps 733 mmHg 76%
    09:00 +21°C° 0 mm 4 mps 732 mmHg 72%
    10:00 +22°C° 0 mm 5 mps 732 mmHg 68%
    11:00 +23°C° 0 mm 5 mps 732 mmHg 64%
    12:00 +23°C° 0.2 mm 5 mps 732 mmHg 65%
    13:00 +25°C° 0.2 mm 5 mps 731 mmHg 66%
    14:00 +25°C° 0.2 mm 5 mps 731 mmHg 67%
    15:00 +25°C° 0.5 mm 5 mps 731 mmHg 70%
    16:00 +25°C° 0.5 mm 5 mps 730 mmHg 74%
    17:00 +25°C° 0.5 mm 5 mps 730 mmHg 77%
    18:00 +22°C° 3.8 mm 5 mps 729 mmHg 81%
    19:00 +21°C° 3.8 mm 5 mps 729 mmHg 86%
    20:00 +20°C° 3.8 mm 5 mps 729 mmHg 90%
    21:00 +20°C° 4.7 mm 5 mps 728 mmHg 91%
    22:00 +20°C° 4.7 mm 5 mps 728 mmHg 93%
    23:00 +19°C° 4.7 mm 6 mps 727 mmHg 94%

    28 June, Thursday

    Time Temperature Precipitation Wind Pressure Humidity
    00:00 +19°C° 1 mm 5 mps 727 mmHg 94%
    01:00 +19°C° 1 mm 5 mps 726 mmHg 94%
    02:00 +19°C° 1 mm 5 mps 726 mmHg 94%
    03:00 +19°C° 0.4 mm 5 mps 725 mmHg 95%
    04:00 +19°C° 0.4 mm 5 mps 725 mmHg 96%
    05:00 +19°C° 0.4 mm 5 mps 725 mmHg 97%
    06:00 +20°C° 0.1 mm 5 mps 725 mmHg 96%
    07:00 +20°C° 0.1 mm 5 mps 725 mmHg 95%
    08:00 +20°C° 0.1 mm 5 mps 725 mmHg 93%
    09:00 +21°C° 0 mm 5 mps 725 mmHg 90%
    10:00 +21°C° 0 mm 5 mps 726 mmHg 87%
    11:00 +22°C° 0 mm 6 mps 726 mmHg 83%
    12:00 +23°C° 0.1 mm 5 mps 726 mmHg 78%
    13:00 +25°C° 0.1 mm 5 mps 726 mmHg 73%
    14:00 +26°C° 0.1 mm 5 mps 726 mmHg 67%
    15:00 +26°C° 0.3 mm 5 mps 726 mmHg 69%
    16:00 +26°C° 0.3 mm 4 mps 727 mmHg 71%
    17:00 +26°C° 0.3 mm 4 mps 727 mmHg 73%
    18:00 +23°C° 0.2 mm 4 mps 727 mmHg 77%
    19:00 +22°C° 0.2 mm 3 mps 727 mmHg 81%
    20:00 +20°C° 0.2 mm 3 mps 727 mmHg 85%
    21:00 +20°C° 0 mm 3 mps 726 mmHg 87%
    22:00 +19°C° 0 mm 3 mps 726 mmHg 90%
    23:00 +18°C° 0 mm 3 mps 726 mmHg 92%

    29 June, Friday

    Time Temperature Precipitation Wind Pressure Humidity
    00:00 +18°C° 0 mm 3 mps 726 mmHg 93%
    01:00 +17°C° 0 mm 2 mps 726 mmHg 93%
    02:00 +17°C° 0 mm 2 mps 726 mmHg 93%
    03:00 +17°C° 0 mm 2 mps 726 mmHg 93%
    04:00 +17°C° 0 mm 2 mps 726 mmHg 93%
    05:00 +16°C° 0 mm 2 mps 726 mmHg 93%
    06:00 +18°C° 0 mm 3 mps 726 mmHg 89%
    07:00 +19°C° 0 mm 3 mps 726 mmHg 85%
    08:00 +21°C° 0 mm 4 mps 726 mmHg 81%
    09:00 +22°C° 0.1 mm 4 mps 726 mmHg 77%
    10:00 +23°C° 0.1 mm 4 mps 726 mmHg 73%
    11:00 +25°C° 0.1 mm 5 mps 726 mmHg 69%
    12:00 +25°C° 0.6 mm 5 mps 726 mmHg 70%
    13:00 +25°C° 0.6 mm 5 mps 726 mmHg 70%
    14:00 +25°C° 0.6 mm 5 mps 725 mmHg 70%
    15:00 +25°C° 0.3 mm 4 mps 725 mmHg 70%
    16:00 +23°C° 0.3 mm 4 mps 725 mmHg 70%
    17:00 +23°C° 0.3 mm 4 mps 725 mmHg 70%
    18:00 +22°C° 0.3 mm 3 mps 725 mmHg 74%
    19:00 +20°C° 0.3 mm 2 mps 725 mmHg 78%
    20:00 +19°C° 0.3 mm 2 mps 725 mmHg 82%
    21:00 +19°C° 0.2 mm 1 mps 725 mmHg 84%
    22:00 +19°C° 0.2 mm 1 mps 725 mmHg 85%
    23:00 +18°C° 0.2 mm 1 mps 725 mmHg 86%
    Show more